• In Belarus
  • List of Countries
  • For 7 days
  • Water Temperature
  • Satellite Maps
  • Weather Map
  • Weather Widgets
  • user-avatar
    Login

    Hourly Weather Maseru

    Today, 17 October, Wednesday

    Time Temperature Precipitation Wind Pressure Humidity
    00:00 +18°C° 0 mm 1 mps 635 mmHg 26%
    01:00 +16°C° 0 mm 1 mps 635 mmHg 27%
    02:00 +16°C° 0 mm 1 mps 634 mmHg 29%
    03:00 +16°C° 0 mm 1 mps 634 mmHg 30%
    04:00 +15°C° 0 mm 1 mps 634 mmHg 31%
    05:00 +14°C° 0 mm 0 mps 634 mmHg 33%
    06:00 +16°C° 0 mm 1 mps 635 mmHg 31%
    07:00 +19°C° 0 mm 1 mps 635 mmHg 29%
    08:00 +20°C° 0 mm 1 mps 636 mmHg 27%
    09:00 +20°C° 0 mm 2 mps 636 mmHg 26%
    10:00 +21°C° 0 mm 3 mps 636 mmHg 25%
    11:00 +22°C° 0 mm 4 mps 636 mmHg 24%
    12:00 +22°C° 0 mm 5 mps 636 mmHg 24%
    13:00 +23°C° 0 mm 6 mps 636 mmHg 24%
    14:00 +24°C° 0 mm 6 mps 635 mmHg 23%
    15:00 +23°C° 0 mm 6 mps 635 mmHg 26%
    16:00 +22°C° 0 mm 7 mps 635 mmHg 28%
    17:00 +22°C° 0 mm 7 mps 635 mmHg 30%
    18:00 +20°C° 0 mm 6 mps 635 mmHg 35%
    19:00 +17°C° 0 mm 5 mps 635 mmHg 40%
    20:00 +17°C° 0 mm 3 mps 635 mmHg 45%
    21:00 +16°C° 0 mm 3 mps 635 mmHg 49%
    22:00 +15°C° 0 mm 2 mps 635 mmHg 52%
    23:00 +14°C° 0 mm 2 mps 635 mmHg 56%

    Tomorrow, 18 October, Thursday

    Time Temperature Precipitation Wind Pressure Humidity
    00:00 +13°C° 0 mm 1 mps 635 mmHg 59%
    01:00 +13°C° 0 mm 1 mps 635 mmHg 62%
    02:00 +12°C° 0 mm 1 mps 634 mmHg 65%
    03:00 +11°C° 0 mm 1 mps 634 mmHg 68%
    04:00 +11°C° 0 mm 1 mps 634 mmHg 70%
    05:00 +9°C° 0 mm 0 mps 634 mmHg 73%
    06:00 +12°C° 0 mm 1 mps 634 mmHg 64%
    07:00 +14°C° 0 mm 1 mps 635 mmHg 55%
    08:00 +16°C° 0 mm 1 mps 636 mmHg 46%
    09:00 +19°C° 0 mm 1 mps 636 mmHg 37%
    10:00 +20°C° 0 mm 2 mps 636 mmHg 29%
    11:00 +23°C° 0 mm 2 mps 636 mmHg 20%
    12:00 +24°C° 0 mm 2 mps 636 mmHg 18%
    13:00 +25°C° 0 mm 3 mps 636 mmHg 16%
    14:00 +26°C° 0 mm 4 mps 636 mmHg 13%
    15:00 +26°C° 0 mm 4 mps 636 mmHg 13%
    16:00 +26°C° 0 mm 4 mps 635 mmHg 13%
    17:00 +26°C° 0 mm 4 mps 635 mmHg 12%
    18:00 +24°C° 0 mm 3 mps 635 mmHg 14%
    19:00 +21°C° 0 mm 2 mps 634 mmHg 16%
    20:00 +19°C° 0 mm 2 mps 634 mmHg 18%
    21:00 +19°C° 0 mm 1 mps 634 mmHg 20%
    22:00 +18°C° 0 mm 1 mps 634 mmHg 21%
    23:00 +15°C° 0 mm 0 mps 634 mmHg 23%

    Day after tomorrow, 19 October, Friday

    Time Temperature Precipitation Wind Pressure Humidity
    00:00 +15°C° 0 mm 0 mps 634 mmHg 23%
    01:00 +14°C° 0 mm 0 mps 634 mmHg 24%
    02:00 +14°C° 0 mm 0 mps 633 mmHg 24%
    03:00 +13°C° 0 mm 0 mps 633 mmHg 24%
    04:00 +14°C° 0 mm 1 mps 633 mmHg 24%
    05:00 +14°C° 0 mm 1 mps 633 mmHg 24%
    06:00 +18°C° 0 mm 1 mps 634 mmHg 20%
    07:00 +20°C° 0 mm 1 mps 636 mmHg 17%
    08:00 +23°C° 0 mm 1 mps 637 mmHg 14%
    09:00 +25°C° 0 mm 1 mps 637 mmHg 14%
    10:00 +26°C° 0 mm 2 mps 637 mmHg 15%
    11:00 +28°C° 0 mm 2 mps 638 mmHg 15%
    12:00 +29°C° 0 mm 3 mps 637 mmHg 14%
    13:00 +30°C° 0 mm 4 mps 637 mmHg 13%
    14:00 +32°C° 0 mm 5 mps 637 mmHg 12%
    15:00 +32°C° 0 mm 5 mps 636 mmHg 12%
    16:00 +30°C° 0 mm 5 mps 636 mmHg 12%
    17:00 +30°C° 0 mm 6 mps 636 mmHg 12%
    18:00 +28°C° 0 mm 4 mps 636 mmHg 14%
    19:00 +25°C° 0 mm 3 mps 635 mmHg 16%
    20:00 +23°C° 0 mm 1 mps 635 mmHg 19%
    21:00 +22°C° 0 mm 1 mps 635 mmHg 20%
    22:00 +21°C° 0 mm 1 mps 635 mmHg 21%
    23:00 +20°C° 0 mm 1 mps 635 mmHg 23%

    20 October, Saturday

    Time Temperature Precipitation Wind Pressure Humidity
    00:00 +20°C° 0 mm 1 mps 635 mmHg 26%
    01:00 +19°C° 0 mm 1 mps 635 mmHg 28%
    02:00 +18°C° 0 mm 1 mps 634 mmHg 31%
    03:00 +18°C° 0 mm 1 mps 635 mmHg 36%
    04:00 +18°C° 0 mm 1 mps 635 mmHg 41%
    05:00 +18°C° 0 mm 1 mps 635 mmHg 45%
    06:00 +18°C° 0 mm 2 mps 636 mmHg 44%
    07:00 +19°C° 0 mm 2 mps 637 mmHg 43%
    08:00 +21°C° 0 mm 2 mps 638 mmHg 42%
    09:00 +22°C° 0 mm 3 mps 638 mmHg 40%
    10:00 +24°C° 0 mm 3 mps 639 mmHg 37%
    11:00 +25°C° 0 mm 4 mps 639 mmHg 34%
    12:00 +25°C° 0 mm 4 mps 639 mmHg 31%
    13:00 +26°C° 0 mm 5 mps 639 mmHg 27%
    14:00 +26°C° 0 mm 5 mps 639 mmHg 24%
    15:00 +26°C° 0 mm 6 mps 639 mmHg 25%
    16:00 +24°C° 0 mm 6 mps 639 mmHg 25%
    17:00 +23°C° 0 mm 6 mps 639 mmHg 26%
    18:00 +21°C° 0 mm 6 mps 639 mmHg 28%
    19:00 +20°C° 0 mm 5 mps 639 mmHg 29%
    20:00 +18°C° 0 mm 4 mps 640 mmHg 31%
    21:00 +15°C° 0 mm 4 mps 640 mmHg 33%
    22:00 +14°C° 0 mm 3 mps 640 mmHg 35%
    23:00 +13°C° 0 mm 3 mps 640 mmHg 37%

    21 October, Sunday

    Time Temperature Precipitation Wind Pressure Humidity
    00:00 +12°C° 0 mm 3 mps 639 mmHg 43%
    01:00 +10°C° 0 mm 2 mps 639 mmHg 49%
    02:00 +9°C° 0 mm 2 mps 639 mmHg 54%
    03:00 +8°C° 0 mm 2 mps 639 mmHg 57%
    04:00 +8°C° 0 mm 2 mps 639 mmHg 60%
    05:00 +8°C° 0 mm 1 mps 639 mmHg 63%
    06:00 +9°C° 0 mm 2 mps 640 mmHg 53%
    07:00 +12°C° 0 mm 2 mps 641 mmHg 42%
    08:00 +13°C° 0 mm 2 mps 642 mmHg 32%
    09:00 +16°C° 0 mm 2 mps 642 mmHg 25%
    10:00 +18°C° 0 mm 2 mps 642 mmHg 18%
    11:00 +20°C° 0 mm 2 mps 642 mmHg 10%
    12:00 +21°C° 0 mm 2 mps 642 mmHg 9%
    13:00 +23°C° 0 mm 2 mps 642 mmHg 8%
    14:00 +24°C° 0 mm 2 mps 641 mmHg 7%
    15:00 +24°C° 0 mm 2 mps 641 mmHg 7%
    16:00 +24°C° 0 mm 3 mps 641 mmHg 8%
    17:00 +24°C° 0 mm 3 mps 641 mmHg 8%
    18:00 +21°C° 0 mm 3 mps 641 mmHg 13%
    19:00 +19°C° 0 mm 3 mps 641 mmHg 17%
    20:00 +16°C° 0 mm 3 mps 641 mmHg 21%
    21:00 +14°C° 0 mm 3 mps 640 mmHg 25%
    22:00 +14°C° 0 mm 2 mps 640 mmHg 28%
    23:00 +13°C° 0 mm 2 mps 640 mmHg 32%

    22 October, Monday

    Time Temperature Precipitation Wind Pressure Humidity
    00:00 +12°C° 0 mm 2 mps 640 mmHg 35%
    01:00 +12°C° 0 mm 2 mps 640 mmHg 37%
    02:00 +10°C° 0 mm 2 mps 639 mmHg 40%
    03:00 +10°C° 0 mm 2 mps 639 mmHg 43%
    04:00 +10°C° 0 mm 1 mps 639 mmHg 46%
    05:00 +10°C° 0 mm 1 mps 639 mmHg 49%
    06:00 +11°C° 0 mm 1 mps 640 mmHg 45%
    07:00 +12°C° 0 mm 2 mps 640 mmHg 41%
    08:00 +14°C° 0 mm 2 mps 640 mmHg 37%
    09:00 +16°C° 0 mm 2 mps 641 mmHg 31%
    10:00 +18°C° 0 mm 3 mps 641 mmHg 24%
    11:00 +20°C° 0 mm 3 mps 641 mmHg 18%
    12:00 +21°C° 0 mm 3 mps 641 mmHg 15%
    13:00 +22°C° 0 mm 4 mps 640 mmHg 13%
    14:00 +23°C° 0 mm 4 mps 640 mmHg 10%
    15:00 +23°C° 0 mm 5 mps 639 mmHg 10%
    16:00 +23°C° 0 mm 5 mps 639 mmHg 10%
    17:00 +22°C° 0 mm 5 mps 639 mmHg 9%
    18:00 +21°C° 0 mm 4 mps 639 mmHg 10%
    19:00 +19°C° 0 mm 4 mps 639 mmHg 12%
    20:00 +18°C° 0 mm 3 mps 639 mmHg 13%
    21:00 +17°C° 0 mm 3 mps 639 mmHg 18%
    22:00 +15°C° 0 mm 2 mps 639 mmHg 22%
    23:00 +14°C° 0 mm 2 mps 638 mmHg 27%
    Show more